Volver al catálogo

STARLINK-35754

ActivoComunicacionesVLEO
NORAD 67054·PAYLOAD·🇺🇸 United States

Lanzado Dec 11, 2025 desde Cape Canaveral Space Force Station

Loading…

Próximos Pases (próximas 24 horas)

TLE

ActualizadoSource: CelesTrak SupGP

Época: Sep 15, 2026, 03:22 UTC

1 67054C 25294AA  26258.14076389 -.00020011  00000+0 -72455-3 0  2584
2 67054  43.0043  48.0898 0001659 270.7634 102.5396 15.27599160    17

Sigue STARLINK-35754 en tiempo real con AllMySat

Download on the App Store